Location: Unspecified
(40.9833°N, 0.0000°E)
Time: 10:07:25
(UTC+00:00)

UKube-1 - Visible Passes

Search period start: 19 July 2019 00:00
Search period end: 29 July 2019 00:00
Orbit: 612 x 621 km, 98.4° (Epoch: 19 July)

Date Brightness Start Highest point End Pass type
(mag) Time Alt. Az. Time Alt. Az. Time Alt. Az.
19 Jul ? 02:42:02 10° E 02:44:25 15° ENE 02:46:48 10° NNE visible
20 Jul ? 02:57:11 10° ESE 03:00:24 21° ENE 03:03:37 10° NNE visible
21 Jul ? 03:12:41 10° SE 03:16:26 30° ENE 03:20:11 10° N visible
22 Jul ? 03:28:25 10° SE 03:32:29 44° ENE 03:36:35 10° N visible
23 Jul ? 03:44:20 10° SSE 03:48:35 66° ENE 03:52:51 10° N visible
24 Jul ? 04:00:25 10° SSE 04:04:43 82° WSW 04:09:02 10° NNW visible
25 Jul ? 02:43:03 10° E 02:45:22 14° ENE 02:47:41 10° NNE visible
25 Jul ? 04:16:41 10° S 04:20:53 53° W 04:25:06 10° NNW visible
26 Jul ? 02:58:10 10° ESE 03:01:20 21° ENE 03:04:31 10° NNE visible
27 Jul ? 03:13:39 10° SE 03:17:21 29° ENE 03:21:06 10° N visible
28 Jul ? 03:29:22 10° SE 03:33:25 43° ENE 03:37:29 10° N visible
